SCP
1 1 0 0 0 -0 -0 -0 0 0 0 0 0 0 0 0 0 0 0 0 0 0 0 0 0 0 0 0 0 0 0 0 0 0 0 0 0 0 0 0 0 0 0 0 0 0 0 0 0
1 0 0 0 0 -0 -0 0 0 0 0 0 0 0 0 0 0 0 0 0 0 0 0 0 0 0 0 0 0 0 0 0 0 0 0 0 0 0 0 0 0 0 0 0 0 0 0 0 0
0 0 0 0 0 -0 0 0 0 0 -0 0 0 0 0 0 0 0 0 0 0 0 0 0 0 0 0 0 0 0 0 0 0 0 0 0 0 0 0 0 0 0 0 0 0 0 0 0 0
0 0 0 0 0 0 0 0 0 -0 -0 0 0 0 0 0 0 0 0 0 0 0 0 0 0 0 0 0 0 0 0 0 0 0 0 0 0 0 0 0 0 0 0 0 0 0 0 0 0
0 0 0 0 -0 0 0 0 0 -0 -0 0 0 0 0 0 0 0 0 0 0 0 0 0 0 0 0 0 0 0 0 0 0 0 0 0 0 0 0 0 0 0 0 0 0 0 0 0 0
0 0 0 0 0 0 0 0 0 0 0 0 0 0 0 0 0 0 0 0 0 0 0 0 0 0 0 0 0 0 0 0 0 0 0 0 0 0 0 0 0 0 0 0 0 0 0 0 0
0 0 0 0 0 0 0 0 0 0 0 0 0 0 0 0 0 0 0 0 0 0 0 0 0 0 0 0 0 0 0 0 0 0 0 0 0 0 0 0 0 0 0 0 0 0 0 0 0
0 0 0 0 0 0 0 0 0 0 0 0 0 0 0 0 0 0 0 0 0 0 0 0 0 0 0 0 0 0 0 0 0 0 0 0 0 0 0 0 0 0 0 0 0 0 0 0 0
0 0 0 0 0 0 0 0 0 0 0 0 0 0 0 0 0 0 0 0 0 0 0 0 0 0 0 0 0 0 0 0 0 0 0 0 0 0 0 0 0 0 0 0 0 0 0 0 0
0 0 0 0 0 0 0 0 0 0 0 0 0 0 0 0 0 0 0 0 0 0 0 0 0 0 0 0 0 0 0 0 0 0 0 0 0 0 0 0 0 0 0 0 0 0 0 0 0
0 0 0 0 0 0 0 0 0 0 0 0 0 0 0 0 0 0 0 0 0 0 0 0 0 0 0 0 0 0 0 0 0 0 0 0 0 0 0 0 0 0 0 0 0 0 0 0 0
0 0 0 0 0 0 0 0 0 0 0 0 0 0 0 0 0 0 0 0 0 0 0 0 0 0 0 0 0 0 0 0 0 0 0 0 0 0 0 0 0 0 0 0 0 0 0 0 0
0 0 0 0 0 0 0 0 0 0 0 0 0 0 0 0 0 0 0 0 0 0 0 0 0 0 0 1 1 0 0 0 0 0 0 0 0 0 0 0 0 0 0 0 0 0 0 0 0
0 0 0 0 0 0 0 0 0 0 0 0 0 0 0 0 0 0 0 0 0 0 0 0 0 0 0 1 1 0 0 0 0 0 0 0 0 0 0 0 0 0 0 0 0 0 0 0 0
0 0 0 0 0 0 0 0 0 0 0 0 0 0 0 0 0 0 0 0 0 0 0 0 0 0 0 1 1 1 1 1 0 0 0 0 0 0 0 0 0 0 0 0 0 0 0 0 0
0 0 0 0 0 0 0 0 0 0 0 0 0 0 0 0 0 0 0 0 0 0 0 0 0 0 0 1 1 1 1 1 1 0 0 0 0 0 0 0 0 0 0 0 0 0 0 0 0
0 0 0 0 0 0 0 0 0 0 0 0 0 0 0 0 0 0 0 1 1 1 1 1 1 1 1 1 1 1 1 1 1 1 0 0 0 0 0 0 0 0 0 0 0 0 0 0 0
0 0 0 0 0 0 0 0 0 0 0 0 0 0 0 0 0 0 1 1 1 1 1 1 1 1 1 1 1 1 1 1 1 1 1 0 0 0 0 0 0 0 0 0 0 0 0 0 0
0 0 0 0 0 0 0 0 0 0 0 0 0 0 0 0 0 0 1 1 1 1 1 1 1 1 2 2 2 2 2 2 2 1 1 1 1 1 1 1 1 0 0 0 0 0 0 0 0
0 0 0 0 0 0 0 0 0 0 0 0 0 0 0 0 0 0 0 1 1 1 1 1 1 2 2 3 3 3 3 3 2 2 1 1 1 1 1 1 1 1 1 0 0 0 0 0 0
0 0 0 0 0 0 0 0 0 0 0 0 0 0 0 0 0 0 0 0 1 1 1 1 1 2 2 3 4 4 4 3 3 2 2 1 1 1 1 1 1 1 1 0 0 0 0 0 0
0 0 0 0 0 0 0 0 0 0 0 0 0 0 0 0 0 0 0 0 0 0 1 1 1 2 2 3 4 4 4 3 3 2 2 1 1 1 1 1 1 1 0 0 0 0 0 0 0
0 0 0 0 0 0 0 0 0 0 0 0 0 0 0 0 0 0 0 0 0 0 0 1 1 1 2 2 3 4 3 3 2 2 2 1 1 1 1 1 1 0 0 0 0 0 0 0 0
0 0 0 0 0 0 0 0 0 0 0 0 0 0 0 0 0 0 0 0 0 0 0 0 1 1 1 2 2 3 2 2 2 2 1 1 1 1 1 1 1 0 0 0 0 0 0 0 0
0 0 0 0 0 0 0 0 0 0 0 0 0 0 0 0 0 0 0 0 0 0 0 0 0 1 1 1 1 2 1 1 1 1 1 1 1 1 1 1 1 0 0 0 0 0 0 0 0
0 0 0 0 0 0 0 0 0 0 0 0 0 0 0 0 0 0 0 0 0 0 0 0 0 0 0 1 1 1 1 1 1 1 1 1 1 1 1 1 1 0 0 0 0 0 0 0 0
0 0 0 0 0 0 0 0 0 0 0 0 0 0 0 0 0 0 0 0 0 0 0 0 0 0 0 0 0 0 0 0 0 0 0 0 0 0 0 0 0 0 0 0 0 0 0 0 0
0 0 0 0 0 0 0 0 0 0 0 0 0 0 0 0 0 0 0 0 0 0 0 0 0 0 0 0 0 0 0 0 0 0 0 0 0 0 0 0 0 0 0 0 0 0 0 0 0
0 0 0 0 0 0 0 0 0 0 0 0 0 0 0 0 0 0 0 0 0 0 0 0 0 0 0 0 0 0 0 0 0 0 0 0 0 0 0 0 0 0 0 0 0 0 0 0 0
0 0 0 0 0 0 0 0 0 0 0 0 0 0 0 0 0 0 0 0 0 0 0 0 0 0 0 0 0 0 0 0 0 0 0 0 0 0 0 0 0 0 0 0 0 0 0 0 0
Wind_Speed
14 12 8 3 3 1 9 7 7 7 10 10 9 7 12 14 9 7 6 11 17 17 15 14 14 13 12 11 11 10 10 10 11 11 10 10 9 9 9 9 8 8 8 8 7 7 7 7 7
13 6 4 3 2 6 8 7 8 10 8 6 9 13 14 13 13 10 8 13 17 17 14 13 14 13 12 11 10 10 10 10 10 11 10 10 9 9 9 9 8 8 8 8 7 7 7 7 7
13 8 4 2 3 7 7 7 8 9 7 7 8 15 12 7 11 10 10 16 16 15 13 15 14 13 11 10 9 9 10 10 10 10 10 9 9 9 9 9 9 9 9 8 8 7 7 6 6
7 4 4 0 7 7 6 7 6 5 5 6 8 11 12 9 8 14 14 16 16 15 14 15 13 12 11 10 9 9 10 10 10 9 9 9 9 9 9 9 9 9 9 9 8 7 6 6 6
5 4 3 1 5 7 6 7 5 4 8 9 11 14 12 12 15 15 13 15 15 15 14 14 13 12 11 10 9 9 9 10 10 9 9 8 8 8 8 9 9 9 9 8 7 6 6 6 6
3 2 2 1 5 5 5 5 4 6 7 6 8 13 10 11 13 13 12 13 15 15 15 14 13 12 11 10 10 9 9 9 9 9 8 8 7 7 8 9 9 8 8 7 6 5 6 6 6
5 4 2 2 4 4 5 4 5 5 9 10 7 10 11 13 11 11 11 10 13 15 15 13 12 10 10 10 10 10 9 9 9 9 8 7 7 7 8 9 9 8 7 5 4 4 4 5 5
3 5 3 1 4 2 4 3 5 6 8 7 8 9 10 13 12 10 10 10 11 13 14 14 13 12 10 9 10 10 10 9 9 9 9 8 7 7 8 9 8 7 6 5 3 2 2 3 4
4 4 5 3 4 3 3 3 4 2 5 6 11 13 15 14 13 10 7 8 9 11 12 13 13 12 10 10 11 10 9 9 8 8 9 8 6 6 7 8 9 7 6 4 3 3 4 4 5
4 2 3 3 5 4 3 4 3 2 6 6 9 13 15 12 12 11 9 9 10 10 11 10 11 11 10 8 8 6 7 6 6 6 7 5 5 4 7 11 10 8 6 6 6 7 7 6 4
4 2 2 3 7 4 3 3 5 6 6 5 3 10 12 11 11 10 10 9 10 9 9 10 10 10 9 6 7 4 3 4 5 5 7 5 4 4 7 5 5 5 7 5 6 6 6 7 6
5 5 4 5 5 4 4 3 4 7 5 6 5 5 11 10 10 10 10 10 10 10 9 9 10 10 9 8 7 5 4 4 4 6 8 6 4 4 6 6 7 6 4 5 5 5 7 6 5
6 4 3 3 4 5 5 3 1 3 4 6 5 1 7 9 7 7 8 9 10 10 9 9 9 10 9 8 6 7 6 6 7 6 7 7 4 4 4 4 5 5 5 4 3 4 2 2 4
4 5 6 7 7 6 6 3 1 2 3 4 5 5 4 4 2 4 4 6 9 10 11 9 9 9 9 9 7 6 6 5 5 5 6 7 5 3 3 3 3 2 3 4 4 3 3 1 3
6 9 11 10 10 7 4 2 1 3 2 4 6 8 7 5 3 4 4 2 2 8 9 10 10 9 9 10 9 6 6 7 5 4 6 6 6 4 4 3 4 3 2 4 2 0 2 2 3
12 11 10 8 6 4 6 4 4 2 3 4 5 5 4 5 6 7 7 7 5 1 4 9 9 9 8 7 7 5 6 6 5 5 4 5 6 6 4 2 3 2 2 1 2 1 1 1 1
7 6 6 5 4 5 5 0 4 3 2 2 2 3 3 4 7 8 8 8 8 6 3 4 7 8 7 7 5 5 5 5 4 4 4 3 4 5 4 3 1 2 2 1 2 1 1 0 1
10 10 9 5 1 4 5 3 3 3 2 2 2 3 4 6 8 8 8 8 8 8 6 4 4 7 7 6 5 4 4 5 4 4 4 4 2 4 5 4 2 2 2 1 1 0 1 1 1
13 14 14 9 3 5 7 4 3 3 2 1 2 4 6 8 10 10 10 9 9 9 8 7 3 5 5 5 6 5 5 4 4 3 5 4 2 3 4 4 3 3 2 1 0 1 0 1 1
13 14 14 11 8 8 9 7 3 3 3 4 5 7 9 10 10 9 10 10 11 10 10 10 8 4 5 5 5 6 6 5 5 4 4 5 4 3 4 4 3 3 2 1 1 0 0 1 1
13 12 14 14 14 12 13 12 8 5 6 6 5 7 9 9 10 10 10 10 10 10 11 11 11 9 6 6 5 5 5 5 4 4 3 3 3 3 3 3 4 3 4 3 3 3 4 3 3
12 13 14 15 13 10 12 10 4 3 9 10 11 10 10 9 9 9 9 10 10 11 11 12 13 11 7 4 6 8 7 6 5 5 4 4 3 3 3 2 2 3 3 4 5 5 4 5 4
13 14 16 17 14 14 13 11 1 7 10 11 11 12 12 12 11 11 11 10 11 11 11 11 12 11 9 4 3 7 6 6 5 6 6 4 3 3 2 2 2 2 3 4 4 4 4 4 5
14 16 16 14 10 10 9 9 5 9 12 12 12 14 15 15 13 12 12 10 10 10 10 10 10 10 9 5 2 3 6 6 7 7 6 4 3 2 2 1 0 1 2 2 3 3 4 4 4
15 13 7 6 3 2 6 4 8 12 14 14 14 15 16 15 15 13 13 12 11 11 11 10 10 9 9 8 6 5 5 5 5 6 6 5 3 2 2 1 1 1 2 1 1 1 2 4 4
13 12 8 7 8 8 5 6 6 14 16 16 16 16 16 16 14 13 13 11 11 11 11 11 10 9 9 8 8 7 7 5 4 5 4 4 3 2 1 1 2 2 2 1 1 0 2 2 3
11 10 9 7 9 6 4 5 5 16 18 18 19 18 17 16 15 13 13 12 11 11 10 10 9 9 9 8 7 7 6 6 5 5 4 3 3 1 1 2 3 3 2 2 1 1 3 2 1
10 9 6 6 6 5 5 7 10 18 18 18 18 17 17 16 14 13 11 12 11 9 9 10 9 9 8 8 6 6 6 5 5 4 4 2 1 1 1 3 4 4 4 3 1 0 1 1 0
12 11 8 5 4 4 4 4 9 12 13 14 14 14 14 15 14 12 10 10 9 9 10 9 9 8 7 7 6 6 5 5 5 4 3 2 1 0 1 3 4 4 5 5 4 2 2 2 2
10 10 8 5 5 4 2 4 8 9 10 11 11 11 12 12 12 11 10 9 9 9 9 9 8 7 7 6 5 5 5 5 4 4 3 2 2 2 3 4 5 4 5 5 6 5 3 3 3
Wind_Direction
282 249 233 249 271 95 72 74 68 51 54 48 37 46 65 57 48 83 140 144 124 124 131 139 139 136 133 129 126 123 122 121 117 112 108 104 100 97 95 94 92 92 92 91 91 93 97 101 109
288 273 254 245 277 79 76 68 68 60 50 52 45 38 59 67 80 104 149 124 126 127 138 141 142 140 138 135 132 130 128 126 121 116 113 110 106 101 97 93 90 90 92 94 92 93 97 101 107
266 270 257 252 75 78 87 85 80 69 43 38 65 64 50 55 98 125 132 130 130 132 138 134 147 145 144 142 141 138 134 130 124 120 117 114 111 106 100 94 89 86 86 90 92 93 97 104 112
281 267 242 321 84 88 94 102 93 97 84 54 60 72 67 49 87 124 135 140 130 133 130 138 149 149 151 151 148 144 140 136 132 129 125 121 118 113 108 101 94 88 84 83 85 87 94 106 115
251 263 317 36 86 84 78 85 84 79 69 56 72 85 78 74 94 120 145 138 134 136 132 143 152 155 158 157 154 151 149 146 143 140 135 131 126 123 120 112 103 94 87 82 79 83 91 106 112
291 290 19 348 83 81 91 97 87 68 72 69 81 92 94 107 114 136 149 140 143 137 137 143 154 161 164 163 161 161 159 157 154 150 144 138 134 132 129 123 116 105 96 87 79 79 90 103 108
316 301 218 203 95 79 62 45 67 70 60 46 45 93 110 114 123 144 147 153 143 140 140 146 159 166 169 170 170 170 168 166 162 157 150 146 142 140 136 132 126 118 110 100 90 85 94 108 115
304 290 291 111 93 75 60 49 51 48 71 53 41 74 111 122 139 146 153 155 146 146 148 157 163 168 171 173 177 176 175 173 170 164 159 155 154 154 151 148 137 133 128 121 117 118 131 142 152
265 283 340 9 75 65 32 30 62 30 81 77 72 74 102 127 141 145 152 156 157 157 157 164 166 169 170 172 171 174 179 179 173 172 172 171 181 177 176 157 145 151 151 156 172 201 213 203 199
246 309 7 337 46 49 9 11 358 33 56 56 87 104 118 139 145 154 165 173 169 167 166 166 167 163 166 176 155 173 179 174 190 182 177 198 211 192 155 138 154 162 173 190 212 227 231 224 211
288 314 311 342 36 7 352 12 8 26 45 16 44 125 138 153 155 165 175 180 171 173 172 166 167 164 162 152 151 171 170 169 197 189 186 202 206 162 137 157 154 176 192 207 212 226 229 217 207
292 313 327 5 30 322 322 357 25 36 23 350 352 136 151 165 171 177 183 177 167 173 175 172 167 166 167 159 161 166 169 179 186 193 203 198 201 193 168 169 173 183 197 211 195 220 224 215 187
279 294 300 295 279 279 291 292 65 43 1 347 343 85 154 168 175 182 184 169 166 168 174 181 173 172 171 160 162 175 177 181 191 188 206 197 188 209 168 179 169 185 182 166 247 253 195 53 52
313 314 286 270 262 255 259 273 258 65 360 8 5 22 66 101 163 177 193 174 167 168 177 178 179 177 170 164 177 178 172 176 192 182 202 192 183 205 149 192 148 207 162 168 221 232 107 72 67
279 267 262 249 244 238 246 268 21 51 35 30 20 41 40 53 36 37 7 352 179 171 174 171 178 184 181 176 180 174 166 174 187 181 212 194 179 186 157 200 153 205 182 185 227 197 117 114 111
257 255 260 262 241 229 234 218 106 62 57 49 29 42 26 31 36 34 9 359 351 329 184 170 178 184 184 172 170 167 172 169 174 177 211 207 178 178 165 175 146 183 166 178 116 39 75 121 181
273 282 303 342 14 330 298 227 133 127 122 99 58 31 31 31 41 31 10 352 343 329 302 179 178 181 180 170 168 167 169 162 168 175 187 215 187 175 145 134 139 157 131 128 129 171 163 193 196
323 316 307 304 324 271 269 229 165 139 107 63 53 22 43 25 31 27 9 352 342 329 314 273 194 186 183 167 170 164 162 162 165 169 171 201 185 150 129 130 142 126 116 83 28 82 65 21 330
315 306 302 301 268 269 269 246 180 137 117 83 37 25 30 29 19 25 11 359 349 337 326 313 260 207 194 170 170 164 165 160 156 163 169 177 166 124 116 123 121 95 104 120 283 6 338 306 319
317 314 314 315 331 317 299 280 232 163 129 68 35 22 26 18 7 12 7 2 355 349 340 327 318 273 215 195 186 174 165 166 160 165 162 158 164 155 140 140 142 142 142 174 233 244 29 298 277
328 325 331 326 321 309 299 279 241 198 131 98 56 32 25 16 3 2 1 359 352 349 345 336 322 309 267 207 185 182 164 157 154 157 144 143 142 144 146 152 157 172 173 193 213 217 210 224 255
319 332 322 307 298 288 278 278 264 105 67 40 20 18 21 14 6 0 2 358 352 349 347 339 332 323 308 250 190 176 170 168 166 157 148 148 151 152 154 164 176 190 191 197 213 217 210 210 229
317 313 296 284 277 275 276 273 360 46 40 25 10 4 10 6 5 3 3 359 355 354 349 343 338 335 332 321 199 180 175 162 153 143 140 138 133 136 149 168 198 213 203 210 221 226 210 208 218
327 312 292 271 256 259 279 280 57 25 15 11 5 5 6 2 359 3 3 3 1 1 355 352 351 353 352 357 20 163 160 147 143 134 132 120 109 92 76 87 285 279 242 227 226 214 213 217 224
344 339 330 335 314 302 349 24 52 17 14 8 6 7 5 1 0 3 7 7 7 3 0 360 3 8 9 23 35 64 98 114 124 121 119 119 112 107 109 128 208 264 263 247 216 210 220 220 218
349 355 354 330 327 326 25 65 53 9 5 7 8 7 4 2 1 5 11 11 6 4 7 7 11 19 24 36 48 58 67 73 86 98 106 109 108 109 124 178 222 234 249 273 234 228 256 239 223
355 356 332 310 310 318 51 74 25 5 2 4 5 4 4 1 2 7 12 11 7 7 11 13 21 29 33 42 53 61 69 77 84 87 89 94 102 135 185 214 218 211 202 247 258 186 264 233 242
16 351 344 349 344 345 33 40 359 352 354 358 3 2 359 358 4 9 10 9 7 10 14 18 25 32 35 38 46 58 58 65 75 80 80 84 105 144 205 227 222 201 184 199 225 296 339 0 256
15 12 358 346 12 356 2 36 6 351 352 355 359 359 360 2 3 6 9 7 9 18 21 20 21 28 33 38 44 49 50 51 60 67 69 63 33 347 276 265 251 205 191 189 168 216 214 253 265
35 15 6 8 12 16 32 43 9 355 354 356 355 356 358 0 2 5 7 8 14 19 17 15 17 24 28 32 39 43 43 44 41 34 24 9 323 295 277 271 271 236 193 182 171 191 188 222 257